Weather History for Delta, CO

Change the Weather History Date:

Sunday, March 17, 2013

  Actual Average (KMTJ) Record (KMTJ)
Temperature  
Mean Temperature 48 °F 42 °F  
Max Temperature 61 °F 55 °F 73 °F (2007)
Min Temperature 34 °F 28 °F 25 °F (2002)
Degree Days  
Heating Degree Days 18 23  
Month to date heating degree days 438  
Since 1 July heating degree days 5153  
Cooling Degree Days 0 0  
Month to date cooling degree days 0  
Year to date cooling degree days 0  
Moisture  
Dew Point 21 °F    
Average Humidity 47    
Maximum Humidity 89    
Minimum Humidity 11    
Precipitation  
Precipitation 0.00 in 0.03 in 0.29 in (2001)
Month to date precipitation 0.54  
Year to date precipitation 1.77  
Sea Level Pressure  
Sea Level Pressure 29.81 in    
Wind  
Wind Speed 9 mph (NW)    
Max Wind Speed 32 mph    
Max Gust Speed 45 mph    
Visibility 10 miles    
Events      
T = Trace of Precipitation, MM = Missing Value Source: NWS Daily Summary

Daily Weather History Graph

Daily Weather History Graph

Search for Another Location

Airport:

Trip Planner

Search our weather history database for the weather conditions in past years. The results will help you decide how hot, cold, wet, or windy it might be!

Date:

Astronomy

Mar. 17, 2013 Rise Set
Actual Time 7:19 AM MDT 7:21 PM MDT
Civil Twilight 6:53 AM MDT 7:48 PM MDT
Nautical Twilight 6:22 AM MDT 8:19 PM MDT
Astronomical Twilight 5:51 AM MDT 8:50 PM MDT
Moon 10:38 AM MDT (3/17) 12:29 AM MDT (3/17)
Length of Visible Light 12h 54m
Length of Day
12h 01m
Waxing Crescent, 32% of the Moon is Illuminated
Mar 17
Waxing Crescent
Mar 19
First Quarter
Mar 27
Full
Apr 2
Last Quarter
Apr 10
New

Hourly Weather History & Observations

Time (MDT) Temp. Windchill Dew Point Humidity Pressure Visibility Wind Dir Wind Speed Gust Speed Precip Events Conditions
12:15 AM 39.7 °F 36.5 °F 34.0 °F 80% 29.88 in 10.0 mi NE 4.6 mph - N/A   Clear
12:35 AM 38.3 °F - 33.1 °F 81% 29.88 in 10.0 mi Calm Calm - N/A   Clear
12:55 AM 38.8 °F 36.5 °F 33.1 °F 80% 29.88 in 10.0 mi ENE 3.5 mph - N/A   Clear
1:15 AM 37.6 °F 34.0 °F 32.7 °F 83% 29.87 in 10.0 mi NE 4.6 mph - N/A   Clear
1:35 AM 37.0 °F 32.4 °F 32.2 °F 83% 29.87 in 10.0 mi East 5.8 mph - N/A   Clear
1:55 AM 35.6 °F 29.2 °F 32.0 °F 87% 29.87 in 10.0 mi NE 8.1 mph - N/A   Clear
2:15 AM 35.6 °F 29.9 °F 32.2 °F 87% 29.87 in 10.0 mi NNE 6.9 mph - N/A   Clear
2:35 AM 35.4 °F 30.5 °F 32.0 °F 87% 29.86 in 10.0 mi ENE 5.8 mph - N/A   Clear
2:55 AM 35.8 °F 30.1 °F 32.0 °F 86% 29.85 in 10.0 mi NE 6.9 mph - N/A   Clear
3:15 AM 35.6 °F 32.8 °F 32.0 °F 87% 29.85 in 10.0 mi NE 3.5 mph - N/A   Clear
3:35 AM 35.4 °F 30.5 °F 31.5 °F 85% 29.83 in 10.0 mi ENE 5.8 mph - N/A   Clear
3:55 AM 35.1 °F 30.1 °F 31.3 °F 86% 29.82 in 10.0 mi ENE 5.8 mph - N/A   Clear
4:15 AM 34.5 °F 29.4 °F 31.6 °F 89% 29.81 in 10.0 mi ENE 5.8 mph - N/A   Clear
4:35 AM 35.6 °F 30.7 °F 32.0 °F 87% 29.80 in 10.0 mi NNE 5.8 mph - N/A   Scattered Clouds
4:55 AM 36.5 °F 32.7 °F 32.5 °F 86% 29.81 in 10.0 mi NNE 4.6 mph - N/A   Mostly Cloudy
5:15 AM 37.2 °F 32.6 °F 32.5 °F 83% 29.79 in 10.0 mi ENE 5.8 mph - N/A   Mostly Cloudy
5:35 AM 36.5 °F 32.7 °F 32.0 °F 84% 29.81 in 10.0 mi SW 4.6 mph - N/A   Overcast
5:55 AM 35.6 °F - 32.2 °F 87% 29.79 in 10.0 mi Calm Calm - N/A   Overcast
6:15 AM 35.1 °F - 32.2 °F 89% 29.79 in 10.0 mi Calm Calm - N/A   Overcast
6:35 AM 35.6 °F 29.9 °F 32.4 °F 88% 29.79 in 10.0 mi West 6.9 mph - N/A   Overcast
6:55 AM 37.9 °F 31.5 °F 32.5 °F 81% 29.81 in 10.0 mi West 9.2 mph - N/A   Overcast
7:15 AM 40.1 °F 34.1 °F 33.4 °F 77% 29.82 in 10.0 mi West 9.2 mph - N/A   Overcast
7:35 AM 39.7 °F - 33.8 °F 79% 29.82 in 10.0 mi Calm Calm - N/A   Overcast
7:55 AM 38.8 °F 33.2 °F 33.8 °F 82% 29.83 in 10.0 mi ESE 8.1 mph - N/A   Overcast
8:15 AM 37.4 °F 31.4 °F 33.1 °F 84% 29.83 in 10.0 mi ESE 8.1 mph - N/A   Overcast
8:35 AM 37.4 °F 33.8 °F 33.1 °F 84% 29.83 in 10.0 mi NNE 4.6 mph - N/A   Overcast
8:55 AM 39.6 °F 34.7 °F 34.0 °F 80% 29.83 in 10.0 mi NNE 6.9 mph - N/A   Overcast
9:15 AM 40.6 °F 38.6 °F 34.2 °F 78% 29.84 in 10.0 mi NE 3.5 mph - N/A   Scattered Clouds
9:35 AM 44.6 °F 41.4 °F 34.3 °F 67% 29.83 in 10.0 mi ENE 5.8 mph - N/A   Clear
9:55 AM 46.6 °F - 34.9 °F 64% 29.83 in 10.0 mi East 3.5 mph - N/A   Scattered Clouds
10:15 AM 47.8 °F - 35.6 °F 63% 29.83 in 10.0 mi East 4.6 mph - N/A   Scattered Clouds
10:35 AM 48.2 °F - 36.1 °F 63% 29.82 in 10.0 mi East 4.6 mph - N/A   Clear
10:55 AM 50.4 °F - 36.5 °F 59% 29.81 in 10.0 mi East 8.1 mph - N/A   Scattered Clouds
11:15 AM 52.2 °F - 35.2 °F 53% 29.79 in 10.0 mi East 4.6 mph - N/A   Scattered Clouds
11:35 AM 53.4 °F - 35.1 °F 50% 29.78 in 10.0 mi ENE 4.6 mph - N/A   Scattered Clouds
11:55 AM 54.1 °F - 33.6 °F 46% 29.77 in 10.0 mi ESE 5.8 mph - N/A   Clear
12:15 PM 55.2 °F - 32.0 °F 41% 29.77 in 10.0 mi SSW 3.5 mph - N/A   Scattered Clouds
12:35 PM 56.3 °F - 29.8 °F 36% 29.76 in 10.0 mi Calm Calm - N/A   Mostly Cloudy
12:55 PM 56.7 °F - 28.0 °F 33% 29.75 in 10.0 mi SW 5.8 mph - N/A   Scattered Clouds
1:15 PM 59.2 °F - 19.4 °F 21% 29.74 in 10.0 mi WSW 16.1 mph 21.9 mph N/A   Mostly Cloudy
1:35 PM 60.1 °F - 11.8 °F 15% 29.74 in 10.0 mi West 19.6 mph 29.9 mph N/A   Scattered Clouds
1:55 PM 61.9 °F - 9.1 °F 13% 29.73 in 10.0 mi West 27.6 mph 38.0 mph N/A   Scattered Clouds
2:15 PM 61.9 °F - 8.6 °F 12% 29.72 in 10.0 mi West 19.6 mph 36.8 mph N/A   Scattered Clouds
2:35 PM 61.2 °F - 5.9 °F 11% 29.72 in 7.0 mi West 21.9 mph 39.1 mph N/A   Mostly Cloudy
2:55 PM 60.8 °F - 10.4 °F 14% 29.72 in 10.0 mi West 20.7 mph 32.2 mph N/A   Mostly Cloudy
3:15 PM 61.3 °F - 9.1 °F 13% 29.71 in 10.0 mi West 28.8 mph 36.8 mph N/A   Mostly Cloudy
3:35 PM 61.5 °F - 6.8 °F 11% 29.71 in 10.0 mi WSW 29.9 mph 42.6 mph N/A   Scattered Clouds
3:55 PM 60.3 °F - 6.6 °F 12% 29.71 in 10.0 mi West 31.1 mph 42.6 mph N/A   Mostly Cloudy
4:15 PM 61.0 °F - 5.9 °F 11% 29.72 in 10.0 mi West 29.9 mph 42.6 mph N/A   Scattered Clouds
4:35 PM 61.2 °F - 5.9 °F 11% 29.72 in 10.0 mi West 32.2 mph 41.4 mph N/A   Clear
4:55 PM 60.8 °F - 7.3 °F 12% 29.74 in 10.0 mi West 25.3 mph 42.6 mph N/A   Clear
5:15 PM 59.9 °F - 6.8 °F 12% 29.73 in 10.0 mi West 29.9 mph 44.9 mph N/A   Scattered Clouds
5:35 PM 59.2 °F - 7.9 °F 13% 29.75 in 10.0 mi West 29.9 mph 42.6 mph N/A   Mostly Cloudy
5:55 PM 57.7 °F - 8.8 °F 14% 29.77 in 10.0 mi West 23.0 mph 38.0 mph N/A   Scattered Clouds
6:15 PM 56.5 °F - 7.5 °F 14% 29.78 in 10.0 mi West 19.6 mph 29.9 mph N/A   Mostly Cloudy
6:35 PM 56.1 °F - 7.3 °F 14% 29.79 in 10.0 mi NW 23.0 mph - N/A   Overcast
6:55 PM 56.5 °F - 6.1 °F 13% 29.79 in 10.0 mi NW 17.3 mph 29.9 mph N/A   Overcast
7:15 PM 54.7 °F - 7.0 °F 15% 29.80 in 10.0 mi NW 15.0 mph 23.0 mph N/A   Overcast
7:35 PM 53.8 °F - 4.8 °F 14% 29.81 in 10.0 mi NW 18.4 mph 28.8 mph N/A   Overcast
7:55 PM 53.1 °F - 4.1 °F 14% 29.82 in 10.0 mi NW 18.4 mph 27.6 mph N/A   Scattered Clouds
8:15 PM 52.0 °F - 3.2 °F 14% 29.84 in 10.0 mi WNW 18.4 mph 25.3 mph N/A   Clear
8:35 PM 51.1 °F - 3.0 °F 14% 29.84 in 10.0 mi NW 17.3 mph 25.3 mph N/A   Clear
8:55 PM 50.9 °F - 3.2 °F 14% 29.85 in 10.0 mi WNW 20.7 mph 25.3 mph N/A   Clear
9:15 PM 50.4 °F - 3.6 °F 15% 29.85 in 10.0 mi WNW 17.3 mph 28.8 mph N/A   Clear
9:35 PM 49.5 °F - 4.1 °F 16% 29.86 in 10.0 mi NW 17.3 mph 23.0 mph N/A   Clear
9:55 PM 49.3 °F - 1.9 °F 14% 29.88 in 10.0 mi NW 13.8 mph 24.2 mph N/A   Clear
10:15 PM 49.1 °F - 1.4 °F 14% 29.89 in 10.0 mi NW 23.0 mph 33.4 mph N/A   Clear
10:35 PM 48.4 °F - 1.9 °F 15% 29.89 in 10.0 mi NW 23.0 mph 29.9 mph N/A   Clear
10:55 PM 47.7 °F - 3.7 °F 17% 29.90 in 10.0 mi WNW 16.1 mph 29.9 mph N/A   Clear
11:15 PM 47.5 °F - 4.3 °F 17% 29.90 in 10.0 mi WNW 21.9 mph 26.5 mph N/A   Clear
11:35 PM 46.9 °F - 4.5 °F 18% 29.91 in 10.0 mi WNW 18.4 mph 24.2 mph N/A   Clear
11:55 PM 46.4 °F 39.2 °F 4.6 °F 18% 29.92 in 10.0 mi WNW 18.4 mph 24.2 mph N/A   Clear